Cloud_Cover
3 4 3 29 45 6 5 5 23 26 90 85 51 6 5 5 18 98 100 100 100 100 98 80 86 10 96 100 100 100 100 100 95 94 99 100 89 35 73 98 100 100 100 77
100 100 100 99 100 100 91 12 7 82 97 72 69 31 5 17 100 100 100 100 100 100 100 100 24 33 100 100 100 100 100 79 55 100 84 89 87 100 100 100 100 100 99 93
99 74 92 88 100 100 98 72 90 91 95 76 73 52 14 100 100 100 100 100 100 100 100 87 42 30 100 100 100 100 88 47 57 96 100 100 100 99 100 100 98 100 100 86
100 85 84 76 96 91 80 95 94 98 100 87 75 87 100 100 100 100 100 100 100 99 99 39 5 22 100 100 100 100 78 65 79 98 100 100 100 100 100 100 98 100 95 94
56 51 100 95 76 88 100 85 76 99 100 91 100 100 100 100 100 100 100 100 100 53 65 26 5 13 100 100 100 100 50 98 99 100 100 100 100 100 100 100 100 100 100 100
42 96 100 92 15 5 5 91 100 99 100 100 100 100 100 100 100 100 100 100 62 6 5 5 5 15 97 100 100 92 97 100 100 100 100 100 100 100 100 100 100 100 100 98
64 77 78 84 9 84 94 80 100 100 100 100 85 100 100 100 100 98 65 8 5 5 9 5 5 10 19 96 100 100 100 100 100 100 100 100 100 100 100 100 100 100 100 100
52 99 98 7 10 95 42 38 56 93 76 84 98 100 100 100 67 37 6 5 5 1 0 5 5 1 5 8 100 100 100 100 100 100 100 100 100 100 100 100 100 100 100 100
98 96 47 6 36 5 5 17 43 80 90 100 74 55 37 9 8 1 0 0 0 0 0 0 0 0 0 2 29 100 100 100 100 100 100 100 100 100 100 100 100 100 100 100
63 21 5 5 5 31 44 28 7 5 5 1 0 0 0 1 1 6 20 45 41 23 10 6 5 5 1 0 2 100 100 100 100 100 95 100 100 100 100 100 100 100 100 100
50 7 5 5 60 99 69 5 6 5 5 10 32 68 72 90 100 100 96 95 90 78 44 65 31 5 5 1 0 69 100 100 100 100 100 100 100 100 100 100 100 100 100 100
100 9 76 62 95 97 56 5 0 1 4 11 50 46 6 32 94 100 100 100 100 100 100 100 100 45 5 5 4 5 100 100 100 100 100 100 100 100 99 100 100 100 100 100
23 30 72 100 99 100 90 6 5 5 1 0 0 7 51 100 100 100 100 100 100 100 100 100 100 100 100 17 5 2 43 100 100 100 100 100 100 100 100 100 100 100 100 100
9 5 34 8 76 95 5 5 5 5 2 10 46 48 8 5 62 100 100 100 100 100 100 100 100 100 100 100 10 5 0 61 100 100 100 100 100 100 100 100 100 100 100 100
29 50 79 68 12 37 35 16 5 11 32 20 8 5 70 88 90 57 48 79 94 100 100 100 100 100 100 100 91 7 4 3 84 100 100 100 100 100 100 100 100 100 100 100
12 91 33 15 59 46 19 18 1 5 16 96 36 39 14 3 0 2 13 26 67 100 100 100 100 100 100 100 100 99 51 5 39 100 100 100 100 100 100 100 100 100 100 100
5 5 5 5 70 39 0 4 6 75 14 5 1 0 7 71 99 100 100 100 100 100 100 100 100 100 100 100 100 100 100 100 74 94 100 100 100 100 100 100 100 100 100 100
7 4 5 5 26 2 5 5 5 4 2 3 46 100 100 100 100 96 66 48 19 13 94 100 100 100 100 100 100 100 100 100 100 100 100 100 100 100 100 100 100 100 100 100
5 5 5 15 4 5 5 4 5 5 44 100 100 100 92 44 11 40 72 100 100 51 73 89 100 100 100 100 100 100 100 100 100 100 100 100 100 100 100 100 100 100 100 100
5 5 5 5 5 5 5 5 5 92 98 64 6 0 0 51 26 5 5 5 39 100 100 100 32 91 100 100 100 100 100 100 100 100 100 100 100 100 100 100 100 100 100 100
5 5 5 5 2 5 4 4 1 0 0 1 0 4 3 4 1 0 0 0 5 98 99 74 84 94 100 100 100 100 100 100 100 100 100 100 100 100 100 100 100 100 100 100
5 5 5 0 0 0 0 0 0 0 0 2 68 100 38 0 1 3 4 3 10 100 24 5 48 100 100 100 100 100 100 100 100 100 100 100 100 100 100 100 100 100 100 100
1 3 0 0 0 0 0 0 0 0 0 0 0 0 0 5 3 0 0 6 5 40 5 5 26 100 100 100 100 100 100 100 100 100 100 100 100 100 100 100 100 100 100 100
2 0 0 0 0 0 0 0 0 0 0 0 2 4 0 0 0 3 5 5 5 5 10 20 40 100 100 100 100 100 100 100 100 100 100 100 100 100 100 100 100 100 100 100
0 0 0 0 0 0 0 0 0 0 0 0 0 2 0 0 0 0 4 5 5 4 5 22 100 100 100 100 100 100 100 100 100 100 100 100 100 100 100 100 100 100 100 100
0 0 0 1 0 0 0 0 0 0 0 0 0 0 0 4 2 1 5 5 5 5 10 97 100 100 100 100 100 100 100 100 100 98 100 100 100 100 100 100 100 100 100 100
0 0 0 0 0 0 0 0 0 0 0 0 0 0 0 0 3 4 5 5 5 5 96 100 99 92 96 90 76 76 93 98 100 100 100 100 100 100 100 100 100 100 100 100